User: anonymous   Login
Location: Maiden
(35.5760°N, 81.2120°W)
Time: 13:19:55
(UTC-04:00)
Language:

Cosmos 2151 - Orbit

View from above orbital plane
View from above orbital plane
View from above satellite
View from above satellite

Ground track
Ground track

The orbit data is extracted from the following two-line orbital elements,

1 21422U 91042A   16269.71780594  .00000265  00000-0  23764-4 0  9991
2 21422  82.5003 138.1070 0015824  96.6698 263.6323 14.91696671369075
Epoch (UTC): 25 September 2016 17:13:38
Eccentricity: 0.0015824
inclination: 82.5003°
perigee height: 581 km
apogee height: 603 km
right ascension of ascending node: 138.1070°
argument of perigee: 96.6698°
revolutions per day: 14.91696671
mean anomaly at epoch: 263.6323°
orbit number at epoch: 36907

The dashed part of the orbit path shows where the satellite is in the earth's shadow,  

DLR